FW0772 Weather Reports


Display with metric or nautical units.
time (UTC)temp
F
wind
direction
speed
MPH
gust
MPH
rain 1hr
in
rain 24hr
in
rain mn
in
humidity
%
barometer
mb
20221206100029 36 256 0.0 6.0 0.00 0.04 0.02 99 1014.7
20221206094524 36 256 2.0 6.0 0.00 0.07 0.02 99 1014.8
20221206093022 36 263 2.0 4.0 0.00 0.07 0.02 99 1014.9
20221206091522 36 217 1.0 3.0 0.00 0.07 0.01 99 1014.9
20221206090030 36 242 1.0 4.0 0.00 0.07 0.01 99 1015.0
20221206084522 36 0 0.0 2.0 0.00 0.07 0.01 99 1014.9
20221206083024 36 0 0.0 2.0 0.00 0.07 0.01 99 1015.0
20221206081523 36 0 1.0 2.0 0.00 0.07 0.01 99 1015.0
20221206080023 36 284 0.0 1.0 0.00 0.07 0.01 99 1015.1
20221206074526 36 0 0.0 2.0 0.00 0.08 0.01 99 1015.2
20221206073022 36 284 0.0 4.0 0.00 0.08 0.01 99 1015.1
20221206071526 36 0 0.0 2.0 0.00 0.08 0.01 99 1015.1
20221206070037 36 0 0.0 2.0 0.00 0.08 0.01 99 1015.0
20221206064524 36 0 0.0 0.0 0.00 0.08 0.01 98 1014.9
20221206063027 36 0 0.0 2.0 0.00 0.08 0.01 98 1014.9
20221206061533 36 0 1.0 2.0 0.00 0.08 0.01 98 1014.8
20221206060028 36 0 0.0 1.0 0.00 0.08 0.01 98 1014.7
20221206054521 36 0 0.0 2.0 0.00 0.08 0.01 99 1014.8
20221206053023 36 0 0.0 3.0 0.00 0.08 0.01 99 1014.9
20221206051522 36 234 0.0 1.0 0.00 0.08 0.01 99 1015.0
20221206050021 36 234 0.0 2.0 0.00 0.08 0.01 99 1015.1
20221206044530 36 0 0.0 0.0 0.00 0.08 0.01 99 1015.1
20221206043021 36 0 0.0 0.0 0.00 0.08 0.01 99 1015.2
20221206041522 36 0 0.0 2.0 0.00 0.08 0.01 98 1015.5
20221206040023 36 0 0.0 1.0 0.00 0.07 0.00 98 1015.7
20221206034522 36 0 0.0 2.0 0.00 0.07 0.00 98 1015.7
20221206033019 36 234 0.0 2.0 0.00 0.07 0.00 98 1015.8
20221206031528 36 234 0.0 1.0 0.00 0.07 0.00 98 1015.9
20221206030021 36 0 0.0 2.0 0.00 0.07 0.00 98 1015.9
20221206024524 36 0 0.0 1.0 0.00 0.07 0.00 98 1015.9
20221206023033 36 0 0.0 0.0 0.00 0.07 0.00 98 1015.9
20221206021527 36 0 0.0 0.0 0.00 0.07 0.00 98 1016.1
20221206020031 36 0 0.0 0.0 0.00 0.07 0.00 98 1016.4
20221206014522 36 0 0.0 0.0 0.00 0.07 0.00 98 1016.5
20221206013023 36 0 0.0 0.0 0.00 0.07 0.00 98 1016.6
20221206011524 36 0 0.0 0.0 0.00 0.07 0.00 98 1016.6
20221206010024 36 0 0.0 0.0 0.00 0.07 0.00 98 1016.7
20221206004523 36 0 0.0 0.0 0.00 0.07 0.00 98 1016.8
20221206003028 36 0 0.0 2.0 0.00 0.07 0.00 98 1017.0
20221206001520 36 0 0.0 2.0 0.00 0.07 0.00 98 1016.8
20221206000022 36 234 0.0 1.0 0.00 0.07 0.00 98 1016.9
20221205234523 36 0 0.0 1.0 0.00 0.07 0.00 98 1017.0
20221205233032 36 0 0.0 2.0 0.00 0.07 0.00 98 1017.3
20221205231521 36 0 0.0 1.0 0.00 0.07 0.00 98 1017.4
20221205230032 36 0 0.0 1.0 0.00 0.07 0.00 98 1017.4
20221205224523 36 0 0.0 0.0 0.00 0.07 0.07 98 1017.6
20221205223037 36 0 0.0 0.0 0.00 0.07 0.07 98 1017.8
20221205221525 36 0 0.0 0.0 0.00 0.07 0.07 98 1017.8
20221205220027 36 0 0.0 0.0 0.00 0.07 0.07 98 1017.9
20221205214522 36 0 0.0 0.0 0.00 0.07 0.07 98 1018.0
20221205213021 36 0 0.0 0.0 0.00 0.07 0.07 98 1018.1
20221205211531 36 0 0.0 0.0 0.00 0.07 0.07 98 1018.1
20221205210021 36 0 0.0 0.0 0.00 0.07 0.07 98 1018.2
20221205204523 36 0 0.0 0.0 0.00 0.07 0.07 98 1018.3
20221205203020 36 0 0.0 0.0 0.00 0.07 0.07 98 1018.4
20221205201530 36 0 0.0 0.0 0.00 0.07 0.07 98 1018.4
20221205200023 36 0 0.0 0.0 0.00 0.07 0.07 98 1018.5
20221205194542 35 0 0.0 0.0 0.00 0.07 0.07 98 1018.6
20221205193041 35 0 0.0 0.0 0.00 0.07 0.07 98 1018.7
20221205191531 35 0 0.0 0.0 0.00 0.07 0.07 98 1018.6
20221205190021 35 0 0.0 0.0 0.00 0.07 0.07 98 1018.8
20221205184523 35 0 0.0 1.0 0.00 0.07 0.07 98 1018.6
20221205183022 35 0 0.0 0.0 0.00 0.07 0.07 98 1018.5
20221205181522 35 0 0.0 0.0 0.00 0.07 0.07 98 1018.7
20221205180026 35 0 0.0 0.0 0.00 0.07 0.07 98 1018.6
20221205174518 35 0 0.0 0.0 0.00 0.07 0.06 98 1018.7
20221205173023 35 0 0.0 1.0 0.00 0.07 0.06 98 1018.7
20221205171535 35 0 0.0 1.0 0.00 0.07 0.06 98 1018.8
20221205170022 35 0 0.0 2.0 0.00 0.07 0.06 98 1019.0
20221205164524 35 117 0.0 2.0 0.00 0.07 0.06 98 1019.1
20221205163019 35 0 0.0 3.0 0.00 0.07 0.06 98 1019.1
20221205161521 35 106 0.0 2.0 0.00 0.07 0.06 98 1019.1
20221205160024 35 106 0.0 3.0 0.00 0.07 0.06 98 1019.3
20221205154522 35 0 0.0 2.0 0.00 0.07 0.06 98 1019.2
20221205153022 35 0 0.0 4.0 0.00 0.07 0.06 98 1019.2
20221205151526 35 120 0.0 2.0 0.00 0.07 0.06 98 1019.1
20221205150029 35 0 0.0 2.0 0.00 0.07 0.06 98 1019.3
20221205144522 35 0 0.0 3.0 0.00 0.08 0.06 98 1019.0
20221205143025 35 114 1.0 3.0 0.00 0.08 0.06 98 1019.3
20221205141523 35 115 0.0 4.0 0.00 0.08 0.06 98 1019.4
20221205140030 35 94 0.0 3.0 0.00 0.08 0.06 98 1019.4
20221205134524 35 119 0.0 3.0 0.00 0.09 0.06 98 1019.4
20221205133024 35 117 1.0 3.0 0.00 0.09 0.06 98 1019.4
20221205131532 35 0 0.0 4.0 0.00 0.09 0.06 98 1019.6
20221205130020 35 117 0.0 3.0 0.00 0.09 0.06 98 1019.5
20221205124529 35 0 0.0 4.0 0.00 0.09 0.06 98 1019.5
20221205123021 35 0 1.0 4.0 0.00 0.09 0.06 98 1019.6
20221205121523 35 103 2.0 7.0 0.00 0.09 0.06 98 1019.8
20221205120022 35 88 1.0 6.0 0.00 0.09 0.06 98 1019.9
20221205114518 35 0 0.0 4.0 0.00 0.09 0.06 98 1020.1
20221205113019 35 0 0.0 3.0 0.00 0.09 0.06 98 1020.2
20221205111521 35 100 1.0 3.0 0.00 0.09 0.06 98 1020.3
20221205110021 35 0 0.0 3.0 0.01 0.09 0.06 98 1020.4
20221205104527 35 106 0.0 3.0 0.02 0.10 0.06 98 1020.4
20221205103034 35 90 1.0 4.0 0.03 0.10 0.06 98 1020.5
20221205101529 35 74 0.0 2.0 0.03 0.09 0.05 98 1020.7